National Oceanic Atmosphere Administration National Weather Service Headquarters National Weather Service Headquarters
NOAA logo WFO Anchorage Scalable transition graphic NWS logo
Transition from title bar to navgation bar   Aviation Weather 03 AKST 
blankspace Home   |   Mobile   |   Social Media   |   Mesonet   |   Surface Map   |   Radar   |   Submit Storm Reports   |   News =12 GMT 

LocalForecast by City, St or Zip Code

spacer

Forecasts/Products
  Public
  Forecast Discussion
    - With Glossary
  Aviation
  Marine
  Hydrology(RFC)
  Rivers & Lakes AHPS
  Ice Desk
  TV Weather
  Fire Weather
  Avalanche
  Travel 511
  Graphical
  xml logo RSS Feeds
  Marine FTPMail

spacer

Data
  Mesonet
  Model Graphics
  Local Model
  Observations
  Marine Obs
  Satellite/Radar
  Vent Factor
  Soaring Index
  Weather Links

spacer

Climate
  PAFC Climate
  Interactive Climate
  PAFC Records
  Local
  National
  More

spacer

Outreach
  About Us
  Community Outreach
  Kids' Page
  Tour/Speaker Request
  Weather Classroom
  Social Media

spacer

Reports
  COOP Observers
  Local Storm Reports
  Spotter Page
  Submit a Storm Report

spacer

Miscellaneous
  Archived Alaska Weather Stories
  Student Career Opportunities
  Research Papers

spacer

Print Friendly/
Low Bandwidth

  Public Forecasts
  Marine Forecasts

spacer

Contact Us
  mailto pafcweb

spacer

Facebook Follow the National Weather Service in Alaska on Twitter
USA.gov is the U.S. government's official web portal to all federal, state and local government web resources and services.


 ICAO ID:   AAWU Graphics

Internet access to TAFs and METAR observations is for planning purposes only. We can not guarantee the timeliness of internet products. Before flying please get a formal pilot briefing (1-800-992-7433) and ALWAYS file a Flight Plan!Pilot briefings are provided to licensed aircraft pilots, ONLY! Others may not use the above number to obtain weather information.

Check out the Key to TAFs and METARs for help with decoding the information.

A 12 hour summary of TAFs can be found here.

PAAQ TAF
PAAQ 301139Z 3012/3112  VRB03KT 6SM -SN SCT025 BKN050
      TEMPO 3012/3014 4SM -SN BR BKN025
     FM301500 VRB03KT P6SM SCT050 BKN080
     FM302000 04006KT P6SM SCT100=


METAR PAAQ 301053Z AUTO 00000KT 4SM -SN BR BKN060 OVC075 M09/M11
 A3031 RMK AO2 SLP270 P0000 T10941111 TSNO=
METAR PAAQ 300953Z AUTO 00000KT 4SM -SN BR SCT033 BKN042 OVC070 M09/M11
     A3028 RMK AO2 SLP261 P0001 T10941111 TSNO=
SPECI PAAQ 300940Z AUTO 00000KT 2SM -SN BR OVC033 M09/M11 A3028 RMK AO2
     P0000 T10941111 TSNO=
METAR PAAQ 300853Z AUTO 00000KT 4SM -SN BR OVC034 M10/M12 A3026 RMK
 AO2 SLP254 P0000 60000 T11001117 411001194 51023 TSNO=
SPECI PAAQ 300845Z AUTO 00000KT 3SM -SN BR SCT027 OVC035 M10/M12 A3026
     RMK AO2 P0000 T11001117 TSNO=
SPECI PAAQ 300839Z AUTO 00000KT 2 1/2SM -SN BR BKN023 OVC035 M10/M11
     A3025 RMK AO2 P0000 T11001111 TSNO=
SPECI PAAQ 300801Z AUTO 16003KT 1 1/4SM -SN BR OVC026 M10/M12 A3024 RMK
     AO2 P0000 T11001117 TSNO=


National Weather Service
Anchorage Forecast Office
6930 Sand Lake Road
Anchorage, Ak 99502
(907) 266-5105 M-F/7-5pm
About Us
Career Opportunities
Glossary
Disclaimer
Privacy Policy
Credits
Alaska Weather Information Line:
1-800-472-0391